Location: Aressy
(43.2833°N, 0.3167°W)
Time: 18:14:07
(UTC+00:00)

ERS-2 - Pass Details

Date: 28 January 2021
Orbit: 492 x 497 km, 98.6° (Epoch: 03 March)

Event Time Altitude Azimuth Distance (km) Brightness Sun altitude
Exits shadow 17:58:31 - 27° (NNE) 2,207 5.0 -9.4°
Reaches altitude 10° 17:59:51 10° 34° (NE) 1,694 4.4 -9.7°
Maximum altitude 18:03:07 31° 98° (E) 889 2.9 -10.3°
Drops below altitude 10° 18:06:21 10° 162° (SSE) 1,680 4.8 -10.8°
Sets 18:08:34 0° 173° (S) 2,557 5.8 -11.2°
